KAC613C OKKK-OBBI

Flight info

Callsign KAC613C
Flight time 0h 47m
Altitude 27000
Route BOXIK B416 IMDOX P975 LONOS L703 KOBOK
Aircraft A320/M-SDE3FGHIRWY/LB1

Departure

Time 2026-04-27 16:50
Airport Kuwait International Airport (OKKK)

Arrival

Time 2026-04-27 17:38
Airport Bahrain International Airport (OBBI)
Time Latitude Longitude Altitude Speed Heading
2026-04-27 16:24 29.24377 47.96363 167 ft 0 kts 65°
2026-04-27 16:41 29.24375 47.96357 167 ft 4 kts 65°
2026-04-27 16:41 29.24363 47.96330 166 ft 4 kts 65°
2026-04-27 16:41 29.24353 47.96301 166 ft 4 kts 73°
2026-04-27 16:41 29.24348 47.96271 165 ft 4 kts 90°
2026-04-27 16:42 29.24353 47.96244 165 ft 4 kts 139°
2026-04-27 16:42 29.24362 47.96237 165 ft 1 kts 155°
2026-04-27 16:45 29.24361 47.96238 164 ft 1 kts 155°
2026-04-27 16:45 29.24346 47.96245 164 ft 5 kts 156°
2026-04-27 16:45 29.24291 47.96274 164 ft 12 kts 155°
2026-04-27 16:45 29.24210 47.96317 164 ft 12 kts 158°
2026-04-27 16:46 29.24156 47.96284 162 ft 10 kts 243°
2026-04-27 16:46 29.24150 47.96271 162 ft 0 kts 243°
2026-04-27 16:49 29.24089 47.96194 160 ft 18 kts 197°
2026-04-27 16:49 29.23965 47.96198 160 ft 14 kts 157°
2026-04-27 16:49 29.23957 47.96202 160 ft 0 kts 156°
2026-04-27 16:49 29.23956 47.96203 160 ft 1 kts 156°
2026-04-27 16:50 29.23834 47.96268 160 ft 52 kts 154°
2026-04-27 16:50 29.23293 47.96556 163 ft 117 kts 155°
2026-04-27 16:50 29.22402 47.97042 237 ft 160 kts 154°
2026-04-27 16:50 29.21388 47.97573 895 ft 160 kts 155°
2026-04-27 16:51 29.20439 47.98246 1588 ft 167 kts 131°
2026-04-27 16:51 29.19830 47.99475 1969 ft 189 kts 121°
2026-04-27 16:51 29.19202 48.00899 2271 ft 212 kts 120°
2026-04-27 16:51 29.18814 48.02649 2570 ft 245 kts 98°
2026-04-27 16:52 29.18687 48.04688 3004 ft 267 kts 101°
2026-04-27 16:52 29.18437 48.06832 3742 ft 276 kts 102°
2026-04-27 16:52 29.18144 48.09028 4616 ft 281 kts 103°
2026-04-27 16:52 29.17845 48.11253 5506 ft 285 kts 103°
2026-04-27 16:53 29.17552 48.13515 6374 ft 290 kts 102°
2026-04-27 16:53 29.17266 48.15814 7214 ft 295 kts 101°
2026-04-27 16:53 29.16980 48.18166 7768 ft 302 kts 101°
2026-04-27 16:53 29.16698 48.20546 7953 ft 302 kts 101°
2026-04-27 16:54 29.16417 48.22933 8010 ft 302 kts 101°
2026-04-27 16:54 29.16140 48.25294 8013 ft 298 kts 101°
2026-04-27 16:54 29.15863 48.27649 8131 ft 301 kts 101°
2026-04-27 16:54 29.15585 48.30021 9036 ft 301 kts 100°
2026-04-27 16:55 29.15258 48.32397 9924 ft 303 kts 107°
2026-04-27 16:55 29.14457 48.34622 10627 ft 305 kts 126°
2026-04-27 16:55 29.13126 48.36524 11345 ft 308 kts 134°
2026-04-27 16:55 29.11712 48.38392 12113 ft 313 kts 134°
2026-04-27 16:56 29.10270 48.40286 12892 ft 318 kts 134°
2026-04-27 16:56 29.08800 48.42211 13661 ft 323 kts 134°
2026-04-27 16:56 29.07311 48.44161 14369 ft 328 kts 134°
2026-04-27 16:56 29.05802 48.46134 14735 ft 330 kts 134°
2026-04-27 16:57 29.04300 48.48098 14787 ft 327 kts 134°
2026-04-27 16:57 29.02823 48.50029 14797 ft 327 kts 134°
2026-04-27 16:57 29.01310 48.52009 14798 ft 326 kts 134°
2026-04-27 16:57 28.99810 48.53972 15167 ft 330 kts 133°
2026-04-27 16:58 28.98434 48.56096 15906 ft 335 kts 128°
2026-04-27 16:58 28.97073 48.58363 16138 ft 358 kts 127°
2026-04-27 16:58 28.95673 48.60754 16434 ft 374 kts 126°
2026-04-27 16:58 28.94227 48.63255 16997 ft 381 kts 126°
2026-04-27 16:59 28.92758 48.65802 17645 ft 386 kts 126°
2026-04-27 16:59 28.91270 48.68376 18266 ft 391 kts 127°
2026-04-27 16:59 28.89754 48.70979 18828 ft 396 kts 127°
2026-04-27 16:59 28.88219 48.73603 19390 ft 400 kts 127°
2026-04-27 17:00 28.85622 48.78017 20350 ft 406 kts 128°
2026-04-27 17:00 28.83497 48.81608 21105 ft 411 kts 128°
2026-04-27 17:00 28.81893 48.84322 21672 ft 415 kts 128°
2026-04-27 17:01 28.80276 48.87064 22210 ft 419 kts 128°
2026-04-27 17:01 28.78645 48.89833 22755 ft 423 kts 128°
2026-04-27 17:01 28.76999 48.92632 23307 ft 427 kts 128°
2026-04-27 17:01 28.75343 48.95449 23766 ft 430 kts 128°
2026-04-27 17:02 28.73665 48.98295 24205 ft 434 kts 129°
2026-04-27 17:02 28.71967 49.01166 24599 ft 439 kts 129°
2026-04-27 17:02 28.70253 49.04057 25016 ft 443 kts 129°
2026-04-27 17:02 28.68524 49.06971 25450 ft 446 kts 129°
2026-04-27 17:03 28.66782 49.09907 25864 ft 450 kts 129°
2026-04-27 17:03 28.65023 49.12869 26275 ft 453 kts 129°
2026-04-27 17:03 28.63252 49.15857 26678 ft 457 kts 129°
2026-04-27 17:03 28.61470 49.18862 26795 ft 460 kts 130°
2026-04-27 17:04 28.59504 49.21758 26826 ft 466 kts 139°
2026-04-27 17:04 28.57158 49.24313 26832 ft 468 kts 148°
2026-04-27 17:04 28.54515 49.26437 26831 ft 463 kts 156°
2026-04-27 17:04 28.51700 49.28186 26829 ft 463 kts 157°
2026-04-27 17:05 28.49038 49.30309 26833 ft 474 kts 146°
2026-04-27 17:05 28.46563 49.32806 26830 ft 476 kts 145°
2026-04-27 17:05 28.44089 49.35306 26833 ft 476 kts 146°
2026-04-27 17:05 28.42447 49.36954 26816 ft 476 kts 146°
2026-04-27 17:06 28.39124 49.40262 26837 ft 475 kts 146°
2026-04-27 17:06 28.36633 49.42724 26833 ft 474 kts 146°
2026-04-27 17:06 28.34177 49.45148 26828 ft 474 kts 146°
2026-04-27 17:06 28.31688 49.47607 26826 ft 474 kts 146°
2026-04-27 17:07 28.29168 49.50095 26827 ft 474 kts 146°
2026-04-27 17:07 28.26714 49.52514 26827 ft 474 kts 146°
2026-04-27 17:07 28.24194 49.54997 26813 ft 474 kts 146°
2026-04-27 17:07 28.21732 49.57414 26817 ft 473 kts 147°
2026-04-27 17:08 28.19161 49.59811 26813 ft 471 kts 149°
2026-04-27 17:08 28.16607 49.62046 26819 ft 470 kts 150°
2026-04-27 17:08 28.13982 49.64250 26821 ft 469 kts 152°
2026-04-27 17:08 28.11350 49.66426 26818 ft 469 kts 152°
2026-04-27 17:09 28.08726 49.68609 26792 ft 469 kts 151°
2026-04-27 17:09 28.06104 49.70820 26810 ft 469 kts 150°
2026-04-27 17:09 28.03489 49.73026 26817 ft 468 kts 151°
2026-04-27 17:09 28.00848 49.75166 26831 ft 467 kts 153°
2026-04-27 17:10 27.98180 49.77249 26823 ft 466 kts 153°
2026-04-27 17:10 27.95491 49.79303 26820 ft 466 kts 154°
2026-04-27 17:10 27.92798 49.81345 26818 ft 466 kts 154°
2026-04-27 17:10 27.90110 49.83394 26797 ft 466 kts 153°
2026-04-27 17:11 27.87427 49.85457 26802 ft 467 kts 153°
2026-04-27 17:11 27.82069 49.89613 26805 ft 467 kts 153°
2026-04-27 17:11 27.79392 49.91695 26808 ft 467 kts 153°
2026-04-27 17:12 27.74040 49.95850 26807 ft 467 kts 153°
2026-04-27 17:12 27.71363 49.97924 26795 ft 467 kts 153°
2026-04-27 17:12 27.68678 50.00001 26796 ft 468 kts 153°
2026-04-27 17:13 27.65994 50.02073 26801 ft 468 kts 153°
2026-04-27 17:13 27.63302 50.04147 26803 ft 468 kts 153°
2026-04-27 17:13 27.60609 50.06219 26805 ft 469 kts 153°
2026-04-27 17:13 27.57913 50.08292 26807 ft 469 kts 153°
2026-04-27 17:14 27.55222 50.10360 26806 ft 469 kts 153°
2026-04-27 17:14 27.52526 50.12429 26791 ft 469 kts 153°
2026-04-27 17:14 27.49823 50.14503 26794 ft 470 kts 153°
2026-04-27 17:14 27.47120 50.16580 26797 ft 470 kts 153°
2026-04-27 17:15 27.44421 50.18658 26798 ft 471 kts 153°
2026-04-27 17:15 27.42604 50.20079 26803 ft 472 kts 152°
2026-04-27 17:15 27.39064 50.22927 26805 ft 473 kts 151°
2026-04-27 17:15 27.36407 50.25110 26806 ft 473 kts 150°
2026-04-27 17:16 27.34607 50.26597 26801 ft 474 kts 150°
2026-04-27 17:16 27.31950 50.28787 26431 ft 470 kts 150°
2026-04-27 17:16 27.29352 50.30923 26188 ft 458 kts 151°
2026-04-27 17:16 27.26820 50.32995 25947 ft 440 kts 151°
2026-04-27 17:17 27.24366 50.34989 25708 ft 434 kts 152°
2026-04-27 17:17 27.21866 50.36987 25475 ft 447 kts 152°
2026-04-27 17:17 27.19349 50.38989 25244 ft 451 kts 152°
2026-04-27 17:18 27.14222 50.43099 24009 ft 446 kts 151°
2026-04-27 17:18 27.11714 50.45131 23295 ft 445 kts 150°
2026-04-27 17:18 27.09200 50.47168 22516 ft 445 kts 150°
2026-04-27 17:18 27.06710 50.49182 22050 ft 437 kts 150°
2026-04-27 17:19 27.04266 50.51155 21565 ft 428 kts 150°
2026-04-27 17:19 27.01902 50.53059 20667 ft 420 kts 150°
2026-04-27 17:19 26.99447 50.54731 19768 ft 407 kts 159°
2026-04-27 17:19 26.96851 50.55992 18878 ft 400 kts 159°
2026-04-27 17:20 26.94584 50.57737 18040 ft 403 kts 139°
2026-04-27 17:20 26.92704 50.60062 17076 ft 401 kts 133°
2026-04-27 17:20 26.90904 50.62418 16192 ft 396 kts 133°
2026-04-27 17:20 26.89127 50.64741 15365 ft 390 kts 133°
2026-04-27 17:21 26.87365 50.67024 14570 ft 383 kts 133°
2026-04-27 17:21 26.85625 50.69253 13775 ft 378 kts 133°
2026-04-27 17:21 26.83903 50.71442 12921 ft 372 kts 133°
2026-04-27 17:21 26.82203 50.73611 12276 ft 369 kts 133°
2026-04-27 17:22 26.80512 50.75771 12074 ft 365 kts 133°
2026-04-27 17:22 26.78872 50.77874 11917 ft 353 kts 133°
2026-04-27 17:22 26.77266 50.79900 11707 ft 343 kts 137°
2026-04-27 17:22 26.75372 50.81442 11360 ft 333 kts 157°
2026-04-27 17:23 26.73201 50.82204 10972 ft 324 kts 176°
2026-04-27 17:23 26.70984 50.82157 10580 ft 316 kts 194°
2026-04-27 17:23 26.68876 50.81647 10427 ft 304 kts 196°
2026-04-27 17:23 26.66847 50.81158 10182 ft 293 kts 195°
2026-04-27 17:24 26.64869 50.80685 9798 ft 289 kts 195°
2026-04-27 17:24 26.62913 50.80220 9322 ft 286 kts 195°
2026-04-27 17:24 26.60971 50.79759 8806 ft 284 kts 195°
2026-04-27 17:24 26.59040 50.79300 8294 ft 283 kts 195°
2026-04-27 17:25 26.57118 50.78843 7797 ft 281 kts 195°
2026-04-27 17:25 26.55214 50.78389 7310 ft 279 kts 195°
2026-04-27 17:25 26.53321 50.77935 6822 ft 277 kts 195°
2026-04-27 17:25 26.51439 50.77484 6342 ft 275 kts 195°
2026-04-27 17:26 26.49577 50.77039 6052 ft 273 kts 194°
2026-04-27 17:26 26.47715 50.76594 6006 ft 274 kts 194°
2026-04-27 17:26 26.45846 50.76147 6005 ft 273 kts 194°
2026-04-27 17:26 26.44064 50.75648 5913 ft 255 kts 202°
2026-04-27 17:27 26.42530 50.74822 5790 ft 236 kts 211°
2026-04-27 17:27 26.41131 50.73952 5573 ft 226 kts 211°
2026-04-27 17:27 26.39784 50.73078 5221 ft 222 kts 219°
2026-04-27 17:27 26.38747 50.71838 4863 ft 218 kts 236°
2026-04-27 17:28 26.37915 50.70429 4473 ft 217 kts 244°
2026-04-27 17:28 26.37669 50.68797 4106 ft 219 kts 277°
2026-04-27 17:28 26.39145 50.65792 3351 ft 226 kts 303°
2026-04-27 17:29 26.40052 50.64385 3033 ft 226 kts 303°
2026-04-27 17:29 26.40960 50.63004 3000 ft 216 kts 303°
2026-04-27 17:29 26.41847 50.61673 3014 ft 212 kts 303°
2026-04-27 17:29 26.42730 50.60364 3017 ft 210 kts 303°
2026-04-27 17:30 26.43610 50.59059 3014 ft 210 kts 303°
2026-04-27 17:30 26.45367 50.56455 3015 ft 210 kts 303°
2026-04-27 17:30 26.46245 50.55153 3014 ft 210 kts 303°
2026-04-27 17:31 26.47058 50.53819 3015 ft 206 kts 288°
2026-04-27 17:31 26.47182 50.52291 3025 ft 196 kts 251°
2026-04-27 17:31 26.46468 50.51048 3027 ft 192 kts 220°
2026-04-27 17:31 26.45408 50.50150 3014 ft 191 kts 214°
2026-04-27 17:32 26.44307 50.49314 3006 ft 192 kts 213°
2026-04-27 17:32 26.41959 50.48284 2991 ft 166 kts 194°
2026-04-27 17:32 26.40888 50.48015 2988 ft 151 kts 193°
2026-04-27 17:33 26.39889 50.47771 2994 ft 144 kts 193°
2026-04-27 17:33 26.38920 50.47535 2997 ft 142 kts 193°
2026-04-27 17:33 26.37916 50.47297 2993 ft 151 kts 189°
2026-04-27 17:33 26.36887 50.47378 2855 ft 149 kts 164°
2026-04-27 17:34 26.36008 50.47968 2721 ft 150 kts 139°
2026-04-27 17:34 26.35392 50.48927 2573 ft 156 kts 127°
2026-04-27 17:34 26.34804 50.49953 2378 ft 157 kts 127°
2026-04-27 17:34 26.34217 50.50975 2185 ft 157 kts 126°
2026-04-27 17:35 26.33632 50.51994 1992 ft 155 kts 126°
2026-04-27 17:35 26.33057 50.52992 1797 ft 152 kts 126°
2026-04-27 17:35 26.32484 50.53989 1614 ft 153 kts 125°
2026-04-27 17:35 26.31911 50.54984 1399 ft 152 kts 125°
2026-04-27 17:36 26.31340 50.55976 1222 ft 151 kts 125°
2026-04-27 17:36 26.30777 50.56954 1038 ft 144 kts 125°
2026-04-27 17:36 26.30255 50.57861 851 ft 140 kts 124°
2026-04-27 17:36 26.29736 50.58761 687 ft 137 kts 123°
2026-04-27 17:37 26.29219 50.59660 516 ft 137 kts 123°
2026-04-27 17:37 26.28707 50.60559 373 ft 138 kts 124°
2026-04-27 17:37 26.28187 50.61450 201 ft 136 kts 122°
2026-04-27 17:37 26.27680 50.62335 35 ft 128 kts 123°
2026-04-27 17:38 26.27244 50.63082 20 ft 95 kts 122°
2026-04-27 17:38 26.27068 50.63390 19 ft 30 kts 123°
2026-04-27 17:38 26.26964 50.63480 19 ft 15 kts 210°
2026-04-27 17:38 26.26903 50.63437 20 ft 0 kts 213°
2026-04-27 17:40 26.26891 50.63428 20 ft 2 kts 213°
2026-04-27 17:41 26.26866 50.63411 21 ft 8 kts 212°
2026-04-27 17:41 26.26804 50.63364 23 ft 11 kts 222°
2026-04-27 17:41 26.26799 50.63300 26 ft 8 kts 298°
2026-04-27 17:41 26.26827 50.63251 24 ft 7 kts 302°
2026-04-27 17:42 26.26852 50.63208 25 ft 6 kts 302°
2026-04-27 17:42 26.26875 50.63167 24 ft 7 kts 303°
2026-04-27 17:42 26.26905 50.63115 24 ft 8 kts 303°
2026-04-27 17:42 26.26922 50.63084 26 ft 0 kts 300°
2026-04-27 17:43 26.26928 50.63071 24 ft 4 kts 299°
2026-04-27 17:43 26.26929 50.63035 25 ft 6 kts 241°
2026-04-27 17:43 26.26886 50.63009 29 ft 10 kts 217°
2026-04-27 17:43 26.26854 50.62986 26 ft 0 kts 212°